This is the latest recevied weather packets stored in our database for station/object XE1E-15. If no packets are shown the sender has not sent any weather packets the latest 10 day(s).
| Time | Temp. | Humidity | Pressure | Rain* | Wind** | Luminosity | Snow |
|---|---|---|---|---|---|---|---|
| 1777965160 | 25° C | 45% | 1023.3 hPa | - | - | - | - |
| 1777964200 | 25.56° C | 45% | 1023.5 hPa | - | - | - | - |
| 1777963240 | 25.56° C | 45% | 1023.5 hPa | - | - | - | - |
| 1777962280 | 25.56° C | 45% | 1023.5 hPa | - | - | - | - |
| 1777961320 | 25.56° C | 44% | 1023.6 hPa | - | - | - | - |
| 1777960360 | 25.56° C | 44% | 1023.7 hPa | - | - | - | - |
| 1777959400 | 25.56° C | 44% | 1023.7 hPa | - | - | - | - |
| 1777958440 | 25° C | 44% | 1023.8 hPa | - | - | - | - |
| 1777957480 | 25.56° C | 44% | 1023.9 hPa | - | - | - | - |
| 1777956520 | 25.56° C | 43% | 1023.8 hPa | - | - | - | - |
| 1777955559 | 25.56° C | 44% | 1023.6 hPa | - | - | - | - |
| 1777954599 | 26.11° C | 43% | 1023.6 hPa | - | - | - | - |
| 1777953639 | 26.11° C | 44% | 1023.6 hPa | - | - | - | - |
| 1777952679 | 26.11° C | 43% | 1023.5 hPa | - | - | - | - |
| 1777951719 | 26.11° C | 43% | 1023.3 hPa | - | - | - | - |
| 1777950759 | 26.67° C | 42% | 1023.2 hPa | - | - | - | - |
| 1777949798 | 26.67° C | 43% | 1023.1 hPa | - | - | - | - |
| 1777949324 | 26.67° C | 42% | 1023 hPa | - | - | - | - |
| 1777948364 | 26.67° C | 42% | 1022.8 hPa | - | - | - | - |
| 1777947404 | 26.67° C | 42% | 1022.6 hPa | - | - | - | - |
| 1777946444 | 27.22° C | 41% | 1022.5 hPa | - | - | - | - |
| 1777945484 | 27.22° C | 41% | 1022.3 hPa | - | - | - | - |
| 1777944524 | 27.22° C | 40% | 1022.2 hPa | - | - | - | - |
| 1777943563 | 27.78° C | 40% | 1022 hPa | - | - | - | - |
| 1777942603 | 27.22° C | 37% | 1021.9 hPa | - | - | - | - |
* Rain since midnight (hover to see other rain measurements)
** Current wind speed in m/s (hover to see current wind gust speed)